• Join FlightAware (Why Join?)
  • Login
  • US Flag 
03:18AM EST


 

Airport Tracker/Info


-or-


 

Live Flight TrackerFlight Track Log ✈ PDT4380 ✈ 30-Mar-2014 ✈ KMDT - KPHL

Flight Track Log - Related Links

Times and Time Zones

All times are in EDT time to prevent confusion due to time zone crossing. See the PDT4380 flight status page for this flight to view local times or setup timezone preferences in your user account.

Time Position Orientation Groundspeed Altitude Reporting Facility
EDT Latitude Longitude Course Direction KTS MPH feet Rate Location/Type
01:56PM 40.1566 -76.5833 114° Southeast  Level Estimated
01:57PM 40.1443 -76.5236 99° East  Level Estimated
01:58PM 40.1373 -76.4625 98° East  Level FlightAware Approximate
01:59PM 40.1303 -76.4013 99° East  Level FlightAware Approximate
02:00PM 40.1232 -76.3402 99° East  Level FlightAware Approximate
02:01PM 40.1100 -76.2809 98° East  Level Estimated
02:02PM 40.1059 -76.2193 95° East  Level FlightAware Approximate
02:03PM 40.1017 -76.1578 95° East  Level FlightAware Approximate
02:03PM 40.1167 -76.1167 111° Southeast 209 241 4,900  Level Philadelphia TRACON
02:04PM 40.0872 -76.0989 96° East  Level Estimated
02:05PM 40.0850 -76.0045 92° East  Level FlightAware Approximate
02:05PM 40.1167 -76.0333 90° East 208 239 5,000  Level Philadelphia TRACON
02:06PM 40.0606 -75.9156 96° East  Level Estimated
02:06PM 40.1000 -75.9667 108° East 208 239 5,000  Level Philadelphia TRACON
02:07PM 40.1000 -75.9000 90° East 194 223 4,900  Descending Philadelphia TRACON
02:07PM 40.0638 -75.8212 87° East  Level FlightAware Approximate
02:08PM 40.0354 -75.7344 118° Southeast  Level Estimated
02:08PM 40.1000 -75.8333 90° East 182 209 5,000  Level Philadelphia TRACON
02:08PM 40.1000 -75.7667 90° East 176 203 5,000  Level Philadelphia TRACON
02:09PM 40.0091 -75.6465 111° Southeast  Level FlightAware Approximate
02:09PM 40.1167 -75.7167 66° East 175 201 5,000  Level Philadelphia TRACON
02:11PM 40.1667 -75.6833 27° Northeast 179 206 5,000  Level Philadelphia TRACON
02:11PM 40.2000 -75.6500 37° Northeast 173 199 5,000  Level Philadelphia TRACON
02:13PM 40.2000 -75.5833 90° East 171 197 5,000  Level Philadelphia TRACON
02:14PM 40.1667 -75.5333 131° Southeast 191 220 5,000  Level Philadelphia TRACON
02:14PM 40.1500 -75.4833 114° Southeast 187 215 5,000  Level Philadelphia TRACON
02:15PM 40.1167 -75.4167 123° Southeast 186 214 5,000  Level Philadelphia TRACON
02:16PM 40.0833 -75.3833 143° Southeast 195 224 5,000  Level Philadelphia TRACON
02:17PM 40.0167 -75.3833 180° South 207 238 5,000  Level Philadelphia TRACON
02:18PM 39.9667 -75.3833 180° South 203 234 5,000  Level Philadelphia TRACON
02:20PM 39.9167 -75.4333 217° Southwest 220 253 5,000 -333 Level Philadelphia TRACON
02:21PM 39.9000 -75.5000 252° West 224 258 4,300 -800 Descending Philadelphia TRACON
02:22PM 39.8833 -75.5833 255° West 227 261 3,400 -650 Descending Philadelphia TRACON
02:23PM 39.8333 -75.6167 207° Southwest 216 249 3,000 -200 Descending Philadelphia TRACON
02:24PM 39.8000 -75.5833 142° Southeast 169 194 3,000  Level Philadelphia TRACON
02:25PM 39.8167 -75.5167 72° East 156 180 3,000  Level Philadelphia TRACON
02:26PM 39.8167 -75.4667 90° East 153 176 3,000 -350 Level Philadelphia TRACON
02:27PM 39.8333 -75.4167 67° East 150 173 2,300 -800 Descending Philadelphia TRACON
02:28PM 39.8500 -75.3667 67° East 163 188 1,400 -750 Descending Philadelphia TRACON
02:29PM 39.8500 -75.3167 90° East 110 127 800 -600 Descending Philadelphia TRACON